Regional Weather Roundup
Issued by NWS

Home | Current Version | Previous Version | Text Only | Print | Product List | Glossary Off
Versions: 1 2 3 4 5 6 7 8 9 10 11 12 13 14 15 16 17 18 19 20 21 22 23 24 25 26 27 28 29 30 31 32 33 34 35 36 37 38 39 40 41 42 43 44 45 46 47 48 49 50

000
ASUS43 KMPX 310810
RWRMN
WEATHER ROUNDUP FOR MINNESOTA
NATIONAL WEATHER SERVICE TWIN CITIES/CHANHASSEN MN
300 AM CDT FRI OCT 31 2014


NOTE: "FAIR" INDICATES FEW OR NO CLOUDS BELOW 12,000 FEET WITH NO
SIGNIFICANT WEATHER AND/OR OBSTRUCTIONS TO VISIBILITY. N/A MEANS
CURRENT SKY AND/OR WEATHER CONDITIONS ARE NOT AVAILABLE.

MNZ060>063-068>070-310900-
   Twin Cities Metro

CITY           SKY/WX    TMP DP  RH WIND       PRES   REMARKS
TWIN CITIES    CLEAR     29  15  56 N17G25    30.44R WCI  17
ST PAUL        CLEAR     29  17  61 N17       30.45R WCI  17
CRYSTAL        CLEAR     30  16  56 N12       30.44R WCI  20
BLAINE         PTCLDY    30  19  64 N12G20    30.44R WCI  21
LAKEVILLE      CLEAR     28  16  59 N18G24    30.42R WCI  16
EDEN PRAIRIE   CLEAR     30  17  58 N15G25    30.43R WCI  19
SOUTH ST PAUL  CLEAR     31  17  58 N14G23    30.44R WCI  20
LAKE ELMO      FAIR      30  19  64 N15       30.43R WCI  19
$$
MNZ001>005-007-008-013>017-022>024-027-028-310900-
   Northwest Minnesota

CITY           SKY/WX    TMP DP  RH WIND       PRES   REMARKS
BEMIDJI        PTCLDY    25  16  70 N5        30.52R WCI  19
HALLOCK        CLEAR     18  14  86 N3        30.62R
ROSEAU         CLEAR     21  18  86 NW6       30.59R WCI  14
WARROAD        CLEAR     21  18  86 NW7       30.57R WCI  13
THIEF RVR FALL CLEAR     21  18  86 N9        30.58R WCI  11
CROOKSTON      CLEAR     18  16  93 N6        30.61R WCI   9
FOSSTON        CLEAR     18  16  93 CALM      30.56R
DETROIT LAKES  CLEAR     23  21  93 N8        30.54R WCI  14
MOORHEAD       CLEAR     19  18  93 NW6       30.59R WCI  11
PARK RAPIDS    CLEAR     26  16  65 N7        30.50R WCI  18
MAHNOMEN       FAIR      20  17  87 N5        30.55R WCI  14
$$
MNZ006-009>011-018-025>026-310900-
   North Central Minnesota

CITY           SKY/WX    TMP DP  RH WIND       PRES   REMARKS
BAUDETTE       CLEAR     26  17  68 N6        30.55R WCI  19
FLAG ISLAND    MOCLDY    28  19  69 N8        30.56R WCI  20
INTL FALLS     MOCLDY    28  16  60 N12       30.52R WCI  18
WASKISH        MOCLDY    25  18  74 CALM      30.54R
BIG FORK       CLOUDY    28  18  64 N5        30.51R WCI  23
LONGVILLE      MOCLDY    27  18  69 N10       30.50R WCI  17
GRAND RAPIDS   CLOUDY    27  16  63 N14G22    30.47R WCI  15
CRANE LAKE     FAIR      25  19  80 N8        30.51R WCI  16
ORR            CLOUDY    27  18  69 NW7       30.47R WCI  19
COOK           CLOUDY    27  19  74 N6        30.48R WCI  20
WALKER         CLOUDY    26  15  64 N7        30.51S WCI  18
$$
MNZ012-019>021-037-310900-
   Northeast Minnesota

CITY           SKY/WX    TMP DP  RH WIND       PRES   REMARKS
DULUTH         CLOUDY    28  16  60 N14G26    30.41R WCI  17
ELY            MOCLDY    25  18  74 N6        30.43R WCI  18
HIBBING        CLOUDY    27  16  63 N15G25    30.46R WCI  15
EVELETH        CLOUDY    27  19  74 N9G18     30.46R WCI  17
DULUTH HARBOR  MOCLDY    32  21  64 N20G25    30.47R WCI  20
TWO HARBORS    PTCLDY    30  19  64 N7        30.40R WCI  23
SILVER BAY     CLEAR     28  19  69 N5        30.39R WCI  23
GRAND MARAIS     N/A     29  19  66 NE7       30.40R WCI  22
G MARAIS ARPRT CLOUDY    21  16  79 N25G36    30.31R WCI   4
$$
MNZ029>031-032-039>041-046>048-054>057-064-310900-
   West Central Minnesota

CITY           SKY/WX    TMP DP  RH WIND       PRES   REMARKS
FERGUS FALLS   CLEAR     19  16  86 N7        30.57S WCI  10
WHEATON        CLEAR     21  18  86 NW9       30.59R WCI  11
MORRIS         CLEAR     21  19  93 NW9       30.53R WCI  11
ALEXANDRIA     CLEAR     27  19  72 N12G20    30.51R WCI  17
ELBOW LAKE     FAIR      24  21  87 N9        30.53S WCI  15
WADENA         CLEAR     19  16  86 NW6       30.51R WCI  11
GLENWOOD       CLEAR     25  19  80 N7        30.51R WCI  17
APPLETON       CLEAR     25  21  86 NW9       30.54S WCI  15
BENSON         CLEAR     21  19  93 N8        30.52S WCI  12
ORTONVILLE     CLEAR     25  19  80 N9        30.55S WCI  15
MADISON        CLEAR     28  25  86 N9        30.54R WCI  20
WILLMAR        FAIR      28  18  64 N13       30.51S WCI  18
$$
MNZ033>034-036-042>043-049>051-058-059-310900-
   Central Minnesota

CITY           SKY/WX    TMP DP  RH WIND       PRES   REMARKS
ST CLOUD       CLEAR     28  16  60 N8        30.48R WCI  20
SAUK CENTRE    FAIR      26  18  72 N8        30.49F WCI  17
PAYNESVILLE    CLEAR     22  17  79 W7        30.50R WCI  14
AITKIN         PTCLDY    28  18  64 N7        30.45R WCI  21
PINE RIVER     MOCLDY    28  18  64 N13       30.51S WCI  18
BRAINERD       PTCLDY    27  16  63 N15       30.49R WCI  15
STAPLES        CLEAR     21  16  79 NW5       30.50R WCI  15
LONG PRAIRIE   FAIR      23  18  80 NW6       30.49S WCI  16
LITTLE FALLS   CLEAR     28  18  64 N5        30.48S WCI  23
LITCHFIELD     CLEAR     27  19  74 NW10      30.49R WCI  17
BUFFALO        CLEAR     29  17  62 NW10      30.48R WCI  20
MAPLE LAKE     PTCLDY    29  19  66 NW15      30.48R WCI  18
$$
MNZ037-044-045-052-053-310900-
   East Central Minnesota

CITY           SKY/WX    TMP DP  RH WIND       PRES   REMARKS
PRINCETON      PTCLDY    28  18  64 N10G16    30.46R WCI  19
MORA           MOCLDY    30  18  59 N8G16     30.47R WCI  23
CAMBRIDGE      PTCLDY    30  18  59 NW9G16    30.43R WCI  22
RUSH CITY      MOCLDY    29  17  60 N10       30.45R WCI  20
MOOSE LAKE     CLOUDY    30  18  59 N17       30.44R WCI  18
HINCKLEY       FAIR      30  18  59 N12G20    30.44R WCI  21
CLOQUET        CLOUDY    28  16  59 N10G24    30.43R WCI  19
MCGREGOR       CLEAR     28  19  69 N12G21    30.46R WCI  18
$$
MNZ071>073-080-081-089-090-097-098-310900-
   Southwest Minnesota

CITY           SKY/WX    TMP DP  RH WIND       PRES   REMARKS
MONTEVIDEO     CLEAR     25  21  86 N9        30.53F WCI  15
GRANITE FALLS  CLEAR     26  20  79 NW6       30.53S WCI  20
CANBY          CLEAR     25  22  89 NW7       30.55S WCI  17
MARSHALL       FAIR      25  18  74 N12       30.50S WCI  14
REDWOOD FALLS  CLEAR     28  19  69 N10G20    30.50R WCI  19
OLIVIA         CLEAR     28  21  74 NW10      30.49R WCI  19
PIPESTONE      CLEAR     27  19  74 NE12      30.48S WCI  16
WINDOM         CLEAR     27  21  80 NW15      30.47R WCI  15
WORTHINGTON    CLEAR     25  19  80 N13       30.48R WCI  13
JACKSON        CLEAR     28  21  74 N12G22    30.46R WCI  18
TRACY          CLEAR     26  22  85 N9        30.50S WCI  17
SLAYTON        CLEAR     25  21  84 N15       30.48R WCI  13
$$
MNZ065>067-074>077-082>085-091>093-310900-
   South Central Minnesota

CITY           SKY/WX    TMP DP  RH WIND       PRES   REMARKS
MANKATO        CLEAR     28  12  50 N14       30.44R WCI  17
NEW ULM        CLEAR     28  19  69 N12       30.47R WCI  18
ST JAMES       CLEAR     28  19  69 NW10      30.47R WCI  19
FAIRMONT       CLEAR     28  16  59 N15       30.44R WCI  17
GLENCOE        CLEAR     29  18  62 NW10      30.46R WCI  20
FARIBAULT      CLEAR     30  16  55 N13G24    30.41R WCI  20
OWATONNA       CLEAR     28  14  54 N14       30.40R WCI  17
WASECA         CLEAR     28  12  50 NW13G20   30.43R WCI  18
ALBERT LEA     CLEAR     28  16  59 N13G21    30.38R WCI  18
$$
MNZ078>079-086>088-094>096-310900-
   Southeast Minnesota

CITY           SKY/WX    TMP DP  RH WIND       PRES   REMARKS
ROCHESTER      CLEAR     28  16  60 N20G30    30.34R WCI  15
RED WING       CLEAR     30  16  55 N10G17    30.38R WCI  21
STANTON        CLEAR     30  17  56 N10G21    30.40R WCI  21
DODGE CENTER   PTCLDY    28  18  64 N17G28    30.36R WCI  16
WINONA         CLEAR     34  23  64 N14G25    30.33R WCI  24
AUSTIN         CLEAR     28  16  59 N14G21    30.35R WCI  17
PRESTON        CLEAR     28  17  64 N15G28    30.31R WCI  16
$$
ABBREVIATIONS USED IN REMARKS
   TC - TEMPERATURES IN CELSIUS
  WCI - WIND CHILL INDEX
   HX - HEAT INDEX
  VSB - VISIBILITY
$$



USA.gov is the U.S. government's official web portal to all federal, state and local government web resources and services.